Time,TemperatureF,DewpointF,PressureIn,WindDirection,WindDirectionDegrees,WindSpeedMPH,WindSpeedGustMPH,Humidity,HourlyPrecipIn,Conditions,Clouds,dailyrainin,SoftwareType,DateUTC
2013-05-28 00:01:00,51.3,48.2,29.96,East,90,3.1,4.3,89,0.01,,,0.00,WUHU216HW,2013-05-28 04:01:00,
2013-05-28 00:06:00,51.5,48.0,29.96,East,90,2.0,4.3,88,0.01,,,0.00,WUHU216HW,2013-05-28 04:06:00,
2013-05-28 00:11:00,51.3,48.2,29.96,SE,135,1.8,2.7,89,0.01,,,0.00,WUHU216HW,2013-05-28 04:11:00,
2013-05-28 00:16:00,51.5,48.3,29.95,ESE,113,1.8,4.5,89,0.01,,,0.00,WUHU216HW,2013-05-28 04:16:00,
2013-05-28 00:21:00,51.5,48.3,29.96,ESE,113,1.1,4.5,89,0.01,,,0.00,WUHU216HW,2013-05-28 04:21:00,
2013-05-28 00:26:00,51.5,48.3,29.96,SE,135,0.9,4.3,89,0.01,,,0.00,WUHU216HW,2013-05-28 04:26:00,
2013-05-28 00:31:00,51.5,48.3,29.95,ESE,113,2.2,4.0,89,0.01,,,0.00,WUHU216HW,2013-05-28 04:31:00,
2013-05-28 00:36:00,51.5,48.3,29.95,East,90,2.5,4.0,89,0.01,,,0.00,WUHU216HW,2013-05-28 04:36:00,
2013-05-28 00:41:00,51.5,48.3,29.95,SE,135,2.2,3.8,89,0.01,,,0.00,WUHU216HW,2013-05-28 04:41:00,
2013-05-28 00:46:00,51.5,48.3,29.95,East,90,1.1,3.8,89,0.01,,,0.00,WUHU216HW,2013-05-28 04:46:00,
2013-05-28 00:51:00,51.7,48.5,29.95,ESE,113,2.9,2.9,89,0.01,,,0.00,WUHU216HW,2013-05-28 04:51:00,
2013-05-28 00:56:00,51.7,48.5,29.94,ENE,68,1.1,4.7,89,0.00,,,0.00,WUHU216HW,2013-05-28 04:56:00,
2013-05-28 01:01:00,51.7,48.5,29.94,East,90,1.1,4.7,89,0.00,,,0.00,WUHU216HW,2013-05-28 05:01:00,
2013-05-28 01:06:00,51.7,48.5,29.94,ESE,113,3.4,3.4,89,0.00,,,0.00,WUHU216HW,2013-05-28 05:06:00,
2013-05-28 01:11:00,51.7,48.5,29.93,SE,135,2.9,3.6,89,0.00,,,0.00,WUHU216HW,2013-05-28 05:11:00,
2013-05-28 01:16:00,51.7,48.5,29.94,ESE,113,1.1,3.6,89,0.00,,,0.00,WUHU216HW,2013-05-28 05:16:00,
2013-05-28 01:21:00,51.7,48.5,29.94,ESE,113,1.1,2.9,89,0.00,,,0.00,WUHU216HW,2013-05-28 05:21:00,
2013-05-28 01:26:00,51.7,48.5,29.94,SSE,158,1.1,2.5,89,0.00,,,0.00,WUHU216HW,2013-05-28 05:26:00,
2013-05-28 01:31:00,51.7,48.5,29.94,ESE,113,1.1,2.2,89,0.00,,,0.00,WUHU216HW,2013-05-28 05:31:00,
2013-05-28 01:36:00,51.7,48.5,29.93,East,90,2.2,3.8,89,0.00,,,0.00,WUHU216HW,2013-05-28 05:36:00,
2013-05-28 01:41:00,51.7,48.5,29.93,East,90,1.1,4.0,89,0.00,,,0.00,WUHU216HW,2013-05-28 05:41:00,
2013-05-28 01:46:00,51.8,48.7,29.93,ESE,113,1.1,4.0,89,0.00,,,0.00,WUHU216HW,2013-05-28 05:46:00,
2013-05-28 01:51:00,51.7,48.5,29.93,East,90,1.8,2.5,89,0.00,,,0.00,WUHU216HW,2013-05-28 05:51:00,
2013-05-28 01:56:00,51.8,48.7,29.92,ESE,113,1.3,3.4,89,0.00,,,0.00,WUHU216HW,2013-05-28 05:56:00,
2013-05-28 02:01:00,51.8,48.7,29.92,SE,135,1.6,3.4,89,0.00,,,0.00,WUHU216HW,2013-05-28 06:01:00,
2013-05-28 02:06:00,51.8,48.7,29.93,East,90,1.1,2.2,89,0.00,,,0.00,WUHU216HW,2013-05-28 06:06:00,
2013-05-28 02:11:00,51.8,48.7,29.93,East,90,1.6,2.7,89,0.00,,,0.00,WUHU216HW,2013-05-28 06:11:00,
2013-05-28 02:16:00,51.8,48.7,29.92,SE,135,0.7,3.4,89,0.00,,,0.00,WUHU216HW,2013-05-28 06:16:00,
2013-05-28 02:21:00,51.8,48.7,29.92,ESE,113,1.1,3.8,89,0.00,,,0.00,WUHU216HW,2013-05-28 06:21:00,
2013-05-28 02:26:00,51.8,48.7,29.92,NE,45,2.9,3.8,89,0.00,,,0.00,WUHU216HW,2013-05-28 06:26:00,
2013-05-28 02:31:00,51.8,48.7,29.92,ESE,113,2.5,2.9,89,0.00,,,0.00,WUHU216HW,2013-05-28 06:31:00,
2013-05-28 02:36:00,51.8,48.7,29.92,ESE,113,1.8,2.9,89,0.01,,,0.00,WUHU216HW,2013-05-28 06:36:00,
2013-05-28 02:41:00,51.8,48.7,29.92,East,90,1.1,2.2,89,0.01,,,0.00,WUHU216HW,2013-05-28 06:41:00,
2013-05-28 02:46:00,51.8,48.7,29.91,East,90,1.6,2.0,89,0.02,,,0.01,WUHU216HW,2013-05-28 06:46:00,
2013-05-28 02:51:00,52.0,48.9,29.91,ESE,113,0.9,2.0,89,0.02,,,0.01,WUHU216HW,2013-05-28 06:51:00,
2013-05-28 02:56:00,52.0,48.9,29.91,East,90,0.4,2.5,89,0.02,,,0.01,WUHU216HW,2013-05-28 06:56:00,
2013-05-28 03:01:00,52.0,48.9,29.91,SE,135,1.1,2.5,89,0.02,,,0.01,WUHU216HW,2013-05-28 07:01:00,
2013-05-28 03:06:00,52.0,49.1,29.91,ENE,68,1.1,2.9,90,0.02,,,0.01,WUHU216HW,2013-05-28 07:06:00,
2013-05-28 03:11:00,52.0,48.9,29.91,East,90,1.1,2.9,89,0.02,,,0.01,WUHU216HW,2013-05-28 07:11:00,
2013-05-28 03:16:00,52.2,49.1,29.91,ESE,113,2.9,2.9,89,0.02,,,0.01,WUHU216HW,2013-05-28 07:16:00,
2013-05-28 03:21:00,52.2,49.1,29.90,East,90,1.1,2.9,89,0.02,,,0.01,WUHU216HW,2013-05-28 07:21:00,
2013-05-28 03:26:00,52.2,49.1,29.90,East,90,0.2,2.2,89,0.02,,,0.01,WUHU216HW,2013-05-28 07:26:00,
2013-05-28 03:31:00,52.2,49.1,29.90,SE,135,1.3,3.1,89,0.02,,,0.01,WUHU216HW,2013-05-28 07:31:00,
2013-05-28 03:36:00,52.2,49.1,29.90,ESE,113,1.8,3.1,89,0.01,,,0.01,WUHU216HW,2013-05-28 07:36:00,
2013-05-28 03:41:00,52.2,49.1,29.90,ESE,113,0.4,2.2,89,0.01,,,0.01,WUHU216HW,2013-05-28 07:41:00,
2013-05-28 03:46:00,52.2,49.1,29.89,East,90,0.2,1.8,89,0.00,,,0.01,WUHU216HW,2013-05-28 07:46:00,
2013-05-28 03:51:00,52.2,49.1,29.90,ENE,68,0.0,1.6,89,0.00,,,0.01,WUHU216HW,2013-05-28 07:51:00,
2013-05-28 03:56:00,52.2,49.1,29.90,ESE,113,0.4,1.6,89,0.00,,,0.01,WUHU216HW,2013-05-28 07:56:00,
2013-05-28 04:01:00,52.4,49.2,29.90,ESE,113,1.3,1.8,89,0.00,,,0.01,WUHU216HW,2013-05-28 08:01:00,
2013-05-28 04:06:00,52.4,49.2,29.90,ESE,113,1.1,1.8,89,0.00,,,0.01,WUHU216HW,2013-05-28 08:06:00,
2013-05-28 04:11:00,52.4,49.2,29.90,ESE,113,1.3,1.3,89,0.00,,,0.01,WUHU216HW,2013-05-28 08:11:00,
2013-05-28 04:16:00,52.4,49.2,29.89,SE,135,1.8,2.5,89,0.00,,,0.01,WUHU216HW,2013-05-28 08:16:00,
2013-05-28 04:21:00,52.4,49.2,29.89,SE,135,0.9,2.5,89,0.00,,,0.01,WUHU216HW,2013-05-28 08:21:00,
2013-05-28 04:26:00,52.4,49.2,29.89,SE,135,0.0,2.5,89,0.00,,,0.01,WUHU216HW,2013-05-28 08:26:00,
2013-05-28 04:31:00,52.4,49.2,29.89,ESE,113,1.8,1.8,89,0.00,,,0.01,WUHU216HW,2013-05-28 08:31:00,
2013-05-28 04:36:00,52.6,49.4,29.89,ESE,113,1.6,1.8,89,0.00,,,0.01,WUHU216HW,2013-05-28 08:36:00,
2013-05-28 04:41:00,52.6,49.4,29.89,East,90,2.0,2.0,89,0.00,,,0.01,WUHU216HW,2013-05-28 08:41:00,
2013-05-28 04:46:00,52.6,49.4,29.89,ESE,113,0.4,2.0,89,0.00,,,0.01,WUHU216HW,2013-05-28 08:46:00,
2013-05-28 04:51:00,52.6,49.4,29.89,East,90,1.1,2.0,89,0.00,,,0.01,WUHU216HW,2013-05-28 08:51:00,
2013-05-28 04:56:00,52.6,49.4,29.89,East,90,1.1,2.5,89,0.00,,,0.01,WUHU216HW,2013-05-28 08:56:00,
2013-05-28 05:01:00,52.6,49.4,29.89,East,90,0.7,2.5,89,0.00,,,0.01,WUHU216HW,2013-05-28 09:01:00,
2013-05-28 05:06:00,52.6,49.4,29.90,East,90,0.2,1.8,89,0.00,,,0.01,WUHU216HW,2013-05-28 09:06:00,
2013-05-28 05:11:00,52.7,49.6,29.90,SE,135,1.3,1.3,89,0.00,,,0.01,WUHU216HW,2013-05-28 09:11:00,
2013-05-28 05:16:00,52.7,49.6,29.90,SE,135,0.4,1.3,89,0.00,,,0.01,WUHU216HW,2013-05-28 09:16:00,
2013-05-28 05:21:00,52.7,49.6,29.90,SE,135,0.4,1.3,89,0.00,,,0.01,WUHU216HW,2013-05-28 09:21:00,
2013-05-28 05:26:00,52.7,49.6,29.90,East,90,0.4,1.8,89,0.00,,,0.01,WUHU216HW,2013-05-28 09:26:00,
2013-05-28 05:31:00,52.7,49.6,29.90,East,90,1.1,1.8,89,0.00,,,0.01,WUHU216HW,2013-05-28 09:31:00,
2013-05-28 05:36:00,52.7,49.6,29.90,ESE,113,0.4,1.1,89,0.00,,,0.01,WUHU216HW,2013-05-28 09:36:00,
2013-05-28 05:41:00,52.7,49.6,29.90,ESE,113,2.5,2.5,89,0.00,,,0.01,WUHU216HW,2013-05-28 09:41:00,
2013-05-28 05:46:00,52.7,49.6,29.90,ESE,113,0.7,2.5,89,0.00,,,0.01,WUHU216HW,2013-05-28 09:46:00,
2013-05-28 05:51:00,52.9,49.8,29.90,East,90,0.4,2.5,89,0.00,,,0.01,WUHU216HW,2013-05-28 09:51:00,
2013-05-28 05:56:00,52.9,49.8,29.90,East,90,1.1,1.3,89,0.00,,,0.01,WUHU216HW,2013-05-28 09:56:00,
2013-05-28 06:01:00,52.9,50.0,29.89,SE,135,0.4,1.8,90,0.00,,,0.01,WUHU216HW,2013-05-28 10:01:00,
2013-05-28 06:06:00,52.9,50.0,29.90,ESE,113,0.4,1.8,90,0.00,,,0.01,WUHU216HW,2013-05-28 10:06:00,
2013-05-28 06:11:00,52.9,50.0,29.90,East,90,0.4,1.6,90,0.00,,,0.01,WUHU216HW,2013-05-28 10:11:00,
2013-05-28 06:16:00,52.9,50.0,29.90,East,90,0.7,1.6,90,0.00,,,0.01,WUHU216HW,2013-05-28 10:16:00,
2013-05-28 06:21:00,52.9,49.8,29.91,ESE,113,0.4,1.3,89,0.00,,,0.01,WUHU216HW,2013-05-28 10:21:00,
2013-05-28 06:26:00,52.9,49.8,29.91,ESE,113,0.2,1.3,89,0.00,,,0.01,WUHU216HW,2013-05-28 10:26:00,
2013-05-28 06:31:00,52.9,50.0,29.91,SSW,203,0.9,2.0,90,0.00,,,0.01,WUHU216HW,2013-05-28 10:31:00,
2013-05-28 06:36:00,52.9,50.0,29.91,East,90,0.0,2.0,90,0.00,,,0.01,WUHU216HW,2013-05-28 10:36:00,
2013-05-28 06:41:00,53.1,50.2,29.91,East,90,1.1,2.0,90,0.00,,,0.01,WUHU216HW,2013-05-28 10:41:00,
2013-05-28 06:46:00,53.1,50.2,29.90,East,90,0.9,1.3,90,0.00,,,0.01,WUHU216HW,2013-05-28 10:46:00,
2013-05-28 06:51:00,53.1,50.2,29.90,ESE,113,1.1,1.8,90,0.00,,,0.01,WUHU216HW,2013-05-28 10:51:00,
2013-05-28 06:56:00,53.3,50.4,29.90,ESE,113,1.3,1.8,90,0.00,,,0.01,WUHU216HW,2013-05-28 10:56:00,
2013-05-28 07:01:00,53.3,50.4,29.90,East,90,0.0,1.8,90,0.00,,,0.01,WUHU216HW,2013-05-28 11:01:00,
2013-05-28 07:06:00,53.3,50.4,29.90,ESE,113,1.1,1.8,90,0.00,,,0.01,WUHU216HW,2013-05-28 11:06:00,
2013-05-28 07:11:00,53.3,50.4,29.90,ESE,113,0.2,1.3,90,0.00,,,0.01,WUHU216HW,2013-05-28 11:11:00,
2013-05-28 07:16:00,53.5,50.6,29.90,ESE,113,0.7,1.8,90,0.00,,,0.01,WUHU216HW,2013-05-28 11:16:00,
2013-05-28 07:21:00,53.5,50.6,29.91,ESE,113,0.4,1.8,90,0.00,,,0.01,WUHU216HW,2013-05-28 11:21:00,
2013-05-28 07:26:00,53.6,50.8,29.91,East,90,0.0,1.3,90,0.00,,,0.01,WUHU216HW,2013-05-28 11:26:00,
2013-05-28 07:31:00,53.6,50.8,29.91,East,90,0.0,1.1,90,0.00,,,0.01,WUHU216HW,2013-05-28 11:31:00,
2013-05-28 07:36:00,53.6,50.8,29.92,SE,135,0.7,1.1,90,0.00,,,0.01,WUHU216HW,2013-05-28 11:36:00,
2013-05-28 07:41:00,53.8,50.9,29.92,SSE,158,0.9,1.1,90,0.00,,,0.01,WUHU216HW,2013-05-28 11:41:00,
2013-05-28 07:46:00,53.8,50.9,29.92,East,90,0.7,1.1,90,0.00,,,0.01,WUHU216HW,2013-05-28 11:46:00,
2013-05-28 07:51:00,54.0,51.1,29.92,East,90,0.0,1.1,90,0.00,,,0.01,WUHU216HW,2013-05-28 11:51:00,
2013-05-28 07:56:00,54.0,51.1,29.92,NNE,23,1.1,1.1,90,0.01,,,0.02,WUHU216HW,2013-05-28 11:56:00,
2013-05-28 08:01:00,54.0,51.1,29.93,WNW,293,0.2,1.3,90,0.03,,,0.05,WUHU216HW,2013-05-28 12:01:00,
2013-05-28 08:06:00,54.0,51.1,29.92,East,90,1.8,1.8,90,0.05,,,0.07,WUHU216HW,2013-05-28 12:06:00,
2013-05-28 08:11:00,54.0,51.1,29.91,NE,45,0.0,2.5,90,0.07,,,0.09,WUHU216HW,2013-05-28 12:11:00,
2013-05-28 08:16:00,54.0,51.1,29.93,WSW,248,2.0,4.0,90,0.09,,,0.11,WUHU216HW,2013-05-28 12:16:00,
2013-05-28 08:21:00,54.2,51.3,29.91,ESE,113,2.0,4.0,90,0.10,,,0.12,WUHU216HW,2013-05-28 12:21:00,
2013-05-28 08:26:00,54.2,51.3,29.91,East,90,0.0,3.4,90,0.12,,,0.14,WUHU216HW,2013-05-28 12:26:00,
2013-05-28 08:31:00,54.2,51.3,29.90,ESE,113,1.3,2.5,90,0.13,,,0.14,WUHU216HW,2013-05-28 12:31:00,
2013-05-28 08:36:00,54.2,51.3,29.90,ESE,113,1.8,2.2,90,0.13,,,0.14,WUHU216HW,2013-05-28 12:36:00,
2013-05-28 08:41:00,54.2,51.3,29.91,North,0,1.8,2.2,90,0.13,,,0.14,WUHU216HW,2013-05-28 12:41:00,
2013-05-28 08:46:00,54.4,51.5,29.90,SE,135,1.1,2.2,90,0.13,,,0.14,WUHU216HW,2013-05-28 12:46:00,
2013-05-28 08:51:00,54.4,51.5,29.89,SE,135,2.0,2.2,90,0.12,,,0.14,WUHU216HW,2013-05-28 12:51:00,
2013-05-28 08:56:00,54.4,51.8,29.89,SE,135,1.1,2.5,91,0.11,,,0.14,WUHU216HW,2013-05-28 12:56:00,
2013-05-28 09:01:00,54.5,51.9,29.89,South,180,1.1,3.4,91,0.09,,,0.14,WUHU216HW,2013-05-28 13:01:00,
2013-05-28 09:06:00,54.7,52.1,29.88,ESE,113,0.2,3.4,91,0.08,,,0.14,WUHU216HW,2013-05-28 13:06:00,
2013-05-28 09:11:00,54.7,52.1,29.87,SE,135,1.1,2.7,91,0.05,,,0.14,WUHU216HW,2013-05-28 13:11:00,
2013-05-28 09:16:00,55.1,52.5,29.87,SE,135,0.4,2.7,91,0.04,,,0.14,WUHU216HW,2013-05-28 13:16:00,
2013-05-28 09:21:00,55.1,52.5,29.88,WSW,248,2.0,3.8,91,0.03,,,0.14,WUHU216HW,2013-05-28 13:21:00,
2013-05-28 09:26:00,55.4,52.8,29.88,South,180,1.3,3.8,91,0.01,,,0.14,WUHU216HW,2013-05-28 13:26:00,
2013-05-28 09:31:00,55.6,53.0,29.88,ESE,113,3.4,3.6,91,0.00,,,0.14,WUHU216HW,2013-05-28 13:31:00,
2013-05-28 09:36:00,55.8,53.2,29.88,South,180,1.6,3.4,91,0.00,,,0.14,WUHU216HW,2013-05-28 13:36:00,
2013-05-28 09:41:00,56.2,53.8,29.88,SSW,203,6.3,6.3,92,0.00,,,0.14,WUHU216HW,2013-05-28 13:41:00,
2013-05-28 09:46:00,56.2,53.6,29.87,ESE,113,2.7,6.3,91,0.00,,,0.14,WUHU216HW,2013-05-28 13:46:00,
2013-05-28 09:51:00,56.5,53.9,29.86,SSE,158,2.2,6.3,91,0.00,,,0.14,WUHU216HW,2013-05-28 13:51:00,
2013-05-28 09:56:00,56.7,54.1,29.87,SE,135,1.6,3.4,91,0.01,,,0.16,WUHU216HW,2013-05-28 13:56:00,
2013-05-28 10:01:00,57.1,54.7,29.88,SSW,203,2.9,5.4,92,0.01,,,0.16,WUHU216HW,2013-05-28 14:01:00,
2013-05-28 10:06:00,57.2,54.9,29.88,SSW,203,1.1,5.4,92,0.02,,,0.17,WUHU216HW,2013-05-28 14:06:00,
2013-05-28 10:11:00,57.2,54.9,29.89,North,0,2.9,5.1,92,0.03,,,0.18,WUHU216HW,2013-05-28 14:11:00,
2013-05-28 10:16:00,57.2,54.6,29.89,ESE,113,1.3,5.1,91,0.04,,,0.19,WUHU216HW,2013-05-28 14:16:00,
2013-05-28 10:21:00,57.2,54.6,29.89,North,0,4.5,4.5,91,0.04,,,0.19,WUHU216HW,2013-05-28 14:21:00,
2013-05-28 10:26:00,57.2,54.6,29.89,North,0,2.0,4.5,91,0.04,,,0.19,WUHU216HW,2013-05-28 14:26:00,
2013-05-28 10:31:00,57.6,55.0,29.88,SSE,158,1.1,4.5,91,0.04,,,0.19,WUHU216HW,2013-05-28 14:31:00,
2013-05-28 10:36:00,57.6,55.0,29.89,East,90,0.9,2.9,91,0.04,,,0.19,WUHU216HW,2013-05-28 14:36:00,
2013-05-28 10:41:00,57.8,55.2,29.89,NNE,23,1.1,1.8,91,0.04,,,0.19,WUHU216HW,2013-05-28 14:41:00,
2013-05-28 10:46:00,58.0,55.4,29.89,ENE,68,1.8,2.0,91,0.04,,,0.19,WUHU216HW,2013-05-28 14:46:00,
2013-05-28 10:51:00,58.1,55.5,29.89,SE,135,0.9,2.0,91,0.03,,,0.19,WUHU216HW,2013-05-28 14:51:00,
2013-05-28 10:56:00,58.1,55.5,29.88,SE,135,1.1,1.8,91,0.03,,,0.19,WUHU216HW,2013-05-28 14:56:00,
2013-05-28 11:01:00,58.5,55.9,29.89,ESE,113,0.7,1.8,91,0.03,,,0.19,WUHU216HW,2013-05-28 15:01:00,
2013-05-28 11:06:00,58.9,56.3,29.88,East,90,1.6,2.0,91,0.02,,,0.19,WUHU216HW,2013-05-28 15:06:00,
2013-05-28 11:11:00,59.2,56.9,29.89,East,90,1.6,2.0,92,0.00,,,0.19,WUHU216HW,2013-05-28 15:11:00,
2013-05-28 11:16:00,59.4,57.1,29.89,East,90,0.9,2.2,92,0.00,,,0.19,WUHU216HW,2013-05-28 15:16:00,
2013-05-28 11:21:00,59.6,57.2,29.89,ESE,113,0.9,2.2,92,0.00,,,0.19,WUHU216HW,2013-05-28 15:21:00,
2013-05-28 11:26:00,59.8,57.4,29.89,SE,135,0.0,2.0,92,0.00,,,0.19,WUHU216HW,2013-05-28 15:26:00,
2013-05-28 11:31:00,59.9,57.6,29.88,ESE,113,0.9,1.8,92,0.00,,,0.19,WUHU216HW,2013-05-28 15:31:00,
2013-05-28 11:36:00,60.1,57.8,29.88,ESE,113,0.7,2.2,92,0.00,,,0.19,WUHU216HW,2013-05-28 15:36:00,
2013-05-28 11:41:00,60.7,58.3,29.87,ENE,68,2.5,2.5,92,0.00,,,0.19,WUHU216HW,2013-05-28 15:41:00,
2013-05-28 11:46:00,61.0,58.7,29.86,East,90,2.5,4.0,92,0.00,,,0.19,WUHU216HW,2013-05-28 15:46:00,
2013-05-28 11:51:00,61.6,59.2,29.86,SE,135,1.1,4.0,92,0.00,,,0.19,WUHU216HW,2013-05-28 15:51:00,
2013-05-28 11:56:00,62.1,59.8,29.86,SE,135,1.3,3.1,92,0.00,,,0.19,WUHU216HW,2013-05-28 15:56:00,
2013-05-28 12:01:00,62.5,60.1,29.85,ESE,113,2.5,4.5,92,0.00,,,0.19,WUHU216HW,2013-05-28 16:01:00,
2013-05-28 12:06:00,62.6,60.0,29.85,ESE,113,2.7,5.6,91,0.00,,,0.19,WUHU216HW,2013-05-28 16:06:00,
2013-05-28 12:11:00,63.0,60.1,29.85,ESE,113,3.1,5.6,90,0.00,,,0.19,WUHU216HW,2013-05-28 16:11:00,
2013-05-28 12:16:00,63.2,60.3,29.85,SE,135,0.9,3.1,90,0.00,,,0.19,WUHU216HW,2013-05-28 16:16:00,
2013-05-28 12:21:00,63.5,60.7,29.85,SE,135,1.1,3.4,90,0.00,,,0.19,WUHU216HW,2013-05-28 16:21:00,
2013-05-28 12:26:00,63.9,61.0,29.85,SE,135,2.0,3.8,90,0.00,,,0.19,WUHU216HW,2013-05-28 16:26:00,
2013-05-28 12:31:00,64.3,61.4,29.85,SE,135,4.0,4.0,90,0.00,,,0.19,WUHU216HW,2013-05-28 16:31:00,
2013-05-28 12:36:00,64.8,61.9,29.85,ESE,113,2.5,4.0,90,0.00,,,0.19,WUHU216HW,2013-05-28 16:36:00,
2013-05-28 12:41:00,65.2,62.2,29.85,SE,135,3.1,5.1,90,0.00,,,0.19,WUHU216HW,2013-05-28 16:41:00,
2013-05-28 12:46:00,65.9,63.2,29.85,South,180,4.0,5.4,91,0.00,,,0.19,WUHU216HW,2013-05-28 16:46:00,
2013-05-28 12:51:00,66.4,63.6,29.85,East,90,2.5,5.6,91,0.00,,,0.19,WUHU216HW,2013-05-28 16:51:00,
2013-05-28 12:56:00,66.8,63.7,29.84,SE,135,2.5,6.3,90,0.00,,,0.19,WUHU216HW,2013-05-28 16:56:00,
2013-05-28 13:01:00,67.1,64.1,29.84,South,180,1.1,6.3,90,0.00,,,0.19,WUHU216HW,2013-05-28 17:01:00,
2013-05-28 13:06:00,67.3,63.9,29.84,ESE,113,2.5,3.4,89,0.00,,,0.19,WUHU216HW,2013-05-28 17:06:00,
2013-05-28 13:11:00,67.3,63.9,29.84,ESE,113,2.7,3.4,89,0.00,,,0.19,WUHU216HW,2013-05-28 17:11:00,
2013-05-28 13:16:00,67.3,63.9,29.84,ESE,113,2.0,2.9,89,0.00,,,0.19,WUHU216HW,2013-05-28 17:16:00,
2013-05-28 13:21:00,67.3,63.6,29.84,SSE,158,1.8,2.9,88,0.00,,,0.19,WUHU216HW,2013-05-28 17:21:00,
2013-05-28 13:26:00,67.3,63.6,29.84,SSE,158,2.0,2.5,88,0.00,,,0.19,WUHU216HW,2013-05-28 17:26:00,
2013-05-28 13:31:00,67.3,63.6,29.84,SE,135,1.8,3.1,88,0.00,,,0.19,WUHU216HW,2013-05-28 17:31:00,
2013-05-28 13:36:00,67.1,63.5,29.84,ESE,113,2.5,3.1,88,0.00,,,0.19,WUHU216HW,2013-05-28 17:36:00,
2013-05-28 13:41:00,67.1,63.7,29.84,ESE,113,0.7,3.6,89,0.00,,,0.19,WUHU216HW,2013-05-28 17:41:00,
2013-05-28 13:46:00,67.3,63.9,29.84,ESE,113,0.2,3.6,89,0.00,,,0.19,WUHU216HW,2013-05-28 17:46:00,
2013-05-28 13:51:00,67.5,64.1,29.84,SE,135,0.4,2.0,89,0.00,,,0.19,WUHU216HW,2013-05-28 17:51:00,
2013-05-28 13:56:00,67.3,63.9,29.84,SE,135,0.9,3.8,89,0.00,,,0.19,WUHU216HW,2013-05-28 17:56:00,
2013-05-28 14:01:00,67.5,63.8,29.84,SSW,203,0.0,3.8,88,0.00,,,0.19,WUHU216HW,2013-05-28 18:01:00,
2013-05-28 14:06:00,67.5,63.8,29.84,SE,135,1.8,1.8,88,0.05,,,0.24,WUHU216HW,2013-05-28 18:06:00,
2013-05-28 14:11:00,67.3,63.6,29.83,SE,135,1.1,2.2,88,0.07,,,0.26,WUHU216HW,2013-05-28 18:11:00,
2013-05-28 14:16:00,67.3,63.6,29.82,SE,135,1.6,2.5,88,0.08,,,0.27,WUHU216HW,2013-05-28 18:16:00,
2013-05-28 14:21:00,67.1,63.5,29.81,East,90,1.1,2.5,88,0.09,,,0.27,WUHU216HW,2013-05-28 18:21:00,
2013-05-28 14:26:00,67.1,63.7,29.81,SE,135,1.1,1.8,89,0.09,,,0.28,WUHU216HW,2013-05-28 18:26:00,
2013-05-28 14:31:00,67.1,63.7,29.82,SSE,158,1.1,2.5,89,0.09,,,0.28,WUHU216HW,2013-05-28 18:31:00,
2013-05-28 14:36:00,67.3,63.9,29.81,SE,135,2.0,2.5,89,0.09,,,0.28,WUHU216HW,2013-05-28 18:36:00,
2013-05-28 14:41:00,67.3,63.9,29.82,SSW,203,0.4,2.7,89,0.09,,,0.28,WUHU216HW,2013-05-28 18:41:00,
2013-05-28 14:46:00,67.3,64.3,29.81,ESE,113,1.1,2.7,90,0.09,,,0.28,WUHU216HW,2013-05-28 18:46:00,
2013-05-28 14:51:00,67.7,64.6,29.82,East,90,0.4,1.3,90,0.09,,,0.28,WUHU216HW,2013-05-28 18:51:00,
2013-05-28 14:56:00,68.0,65.3,29.82,ENE,68,0.9,1.3,91,0.09,,,0.28,WUHU216HW,2013-05-28 18:56:00,
2013-05-28 15:01:00,68.8,66.0,29.83,SE,135,2.2,2.5,91,0.06,,,0.28,WUHU216HW,2013-05-28 19:01:00,
2013-05-28 15:06:00,69.1,66.3,29.82,ESE,113,1.1,2.5,91,0.04,,,0.28,WUHU216HW,2013-05-28 19:06:00,
2013-05-28 15:11:00,69.5,66.7,29.82,East,90,0.9,2.2,91,0.02,,,0.28,WUHU216HW,2013-05-28 19:11:00,
2013-05-28 15:16:00,69.8,66.8,29.83,NNW,338,4.0,4.5,90,0.01,,,0.28,WUHU216HW,2013-05-28 19:16:00,
2013-05-28 15:21:00,69.7,66.2,29.83,NNE,23,2.5,5.1,89,0.00,,,0.28,WUHU216HW,2013-05-28 19:21:00,
2013-05-28 15:26:00,69.5,65.7,29.83,North,0,1.1,5.1,88,0.00,,,0.28,WUHU216HW,2013-05-28 19:26:00,
2013-05-28 15:31:00,69.1,65.4,29.83,NNE,23,0.9,4.5,88,0.00,,,0.28,WUHU216HW,2013-05-28 19:31:00,
2013-05-28 15:36:00,69.1,65.4,29.83,SSE,158,0.0,1.3,88,0.00,,,0.28,WUHU216HW,2013-05-28 19:36:00,
2013-05-28 15:41:00,68.9,65.5,29.83,NE,45,0.4,1.8,89,0.00,,,0.28,WUHU216HW,2013-05-28 19:41:00,
2013-05-28 15:46:00,69.1,65.7,29.83,East,90,1.1,1.8,89,0.00,,,0.28,WUHU216HW,2013-05-28 19:46:00,
2013-05-28 15:51:00,69.3,66.2,29.83,East,90,1.8,1.8,90,0.00,,,0.28,WUHU216HW,2013-05-28 19:51:00,
2013-05-28 15:56:00,69.8,66.8,29.83,East,90,2.0,2.2,90,0.00,,,0.28,WUHU216HW,2013-05-28 19:56:00,
2013-05-28 16:01:00,70.2,67.1,29.83,East,90,0.9,2.2,90,0.00,,,0.28,WUHU216HW,2013-05-28 20:01:00,
2013-05-28 16:06:00,70.9,67.9,29.82,ENE,68,0.4,2.0,90,0.00,,,0.28,WUHU216HW,2013-05-28 20:06:00,
2013-05-28 16:11:00,71.5,68.0,29.83,NE,45,2.9,3.6,89,0.00,,,0.28,WUHU216HW,2013-05-28 20:11:00,
2013-05-28 16:16:00,71.6,67.9,29.82,North,0,4.9,4.9,88,0.00,,,0.28,WUHU216HW,2013-05-28 20:16:00,
2013-05-28 16:21:00,71.6,67.9,29.83,NNW,338,2.5,4.9,88,0.00,,,0.28,WUHU216HW,2013-05-28 20:21:00,
2013-05-28 16:26:00,71.6,67.9,29.82,ENE,68,1.8,4.7,88,0.00,,,0.28,WUHU216HW,2013-05-28 20:26:00,
2013-05-28 16:31:00,71.6,67.9,29.82,NE,45,0.9,4.7,88,0.00,,,0.28,WUHU216HW,2013-05-28 20:31:00,
2013-05-28 16:36:00,71.6,67.6,29.82,SSW,203,1.6,2.2,87,0.00,,,0.28,WUHU216HW,2013-05-28 20:36:00,
2013-05-28 16:41:00,71.6,67.6,29.82,WSW,248,1.3,2.2,87,0.03,,,0.31,WUHU216HW,2013-05-28 20:41:00,
2013-05-28 16:46:00,71.6,67.9,29.81,SSE,158,0.0,1.6,88,0.03,,,0.31,WUHU216HW,2013-05-28 20:46:00,
2013-05-28 16:51:00,71.8,68.0,29.81,South,180,1.1,3.8,88,0.03,,,0.31,WUHU216HW,2013-05-28 20:51:00,
2013-05-28 16:56:00,72.2,68.4,29.81,SSW,203,1.1,3.8,88,0.03,,,0.31,WUHU216HW,2013-05-28 20:56:00,
2013-05-28 17:01:00,72.5,68.8,29.81,SW,225,1.8,2.5,88,0.03,,,0.31,WUHU216HW,2013-05-28 21:01:00,
2013-05-28 17:06:00,72.7,68.9,29.81,SSE,158,1.1,2.0,88,0.03,,,0.31,WUHU216HW,2013-05-28 21:06:00,
2013-05-28 17:11:00,73.3,69.8,29.80,SSE,158,0.9,2.5,89,0.03,,,0.31,WUHU216HW,2013-05-28 21:11:00,
2013-05-28 17:16:00,73.6,70.2,29.80,South,180,2.2,2.5,89,0.03,,,0.31,WUHU216HW,2013-05-28 21:16:00,
2013-05-28 17:21:00,74.2,70.7,29.80,SSW,203,3.4,4.0,89,0.03,,,0.31,WUHU216HW,2013-05-28 21:21:00,
2013-05-28 17:26:00,74.5,70.7,29.80,WSW,248,2.7,4.0,88,0.03,,,0.31,WUHU216HW,2013-05-28 21:26:00,
2013-05-28 17:31:00,74.7,70.7,29.80,SSW,203,2.9,4.5,87,0.03,,,0.31,WUHU216HW,2013-05-28 21:31:00,
2013-05-28 17:36:00,74.7,70.3,29.80,South,180,3.1,4.7,86,0.00,,,0.31,WUHU216HW,2013-05-28 21:36:00,
2013-05-28 17:41:00,74.5,70.1,29.80,SW,225,2.5,6.9,86,0.00,,,0.31,WUHU216HW,2013-05-28 21:41:00,
2013-05-28 17:46:00,74.3,69.9,29.80,SSW,203,4.7,6.9,86,0.00,,,0.31,WUHU216HW,2013-05-28 21:46:00,
2013-05-28 17:51:00,74.2,69.4,29.80,SSW,203,3.4,4.7,85,0.00,,,0.31,WUHU216HW,2013-05-28 21:51:00,
2013-05-28 17:56:00,73.8,69.0,29.81,SW,225,1.8,4.7,85,0.00,,,0.31,WUHU216HW,2013-05-28 21:56:00,
2013-05-28 18:01:00,73.6,68.9,29.80,WNW,293,2.5,4.3,85,0.00,,,0.31,WUHU216HW,2013-05-28 22:01:00,
2013-05-28 18:06:00,73.4,69.0,29.81,South,180,3.1,3.8,86,0.00,,,0.31,WUHU216HW,2013-05-28 22:06:00,
2013-05-28 18:11:00,73.3,68.9,29.81,SW,225,2.9,4.0,86,0.00,,,0.31,WUHU216HW,2013-05-28 22:11:00,
2013-05-28 18:16:00,73.3,68.9,29.81,SSW,203,1.8,4.3,86,0.00,,,0.31,WUHU216HW,2013-05-28 22:16:00,
2013-05-28 18:21:00,73.1,68.7,29.82,SSW,203,2.2,4.7,86,0.00,,,0.31,WUHU216HW,2013-05-28 22:21:00,
2013-05-28 18:26:00,73.1,68.7,29.81,SSW,203,3.4,4.7,86,0.01,,,0.32,WUHU216HW,2013-05-28 22:26:00,
2013-05-28 18:31:00,73.1,68.7,29.80,South,180,3.4,4.5,86,0.01,,,0.32,WUHU216HW,2013-05-28 22:31:00,
2013-05-28 18:36:00,73.1,68.7,29.80,SSW,203,4.7,5.6,86,0.01,,,0.32,WUHU216HW,2013-05-28 22:36:00,
2013-05-28 18:41:00,73.3,68.9,29.80,SSW,203,2.7,5.6,86,0.01,,,0.32,WUHU216HW,2013-05-28 22:41:00,
2013-05-28 18:46:00,73.3,68.9,29.79,SSW,203,4.0,6.5,86,0.01,,,0.32,WUHU216HW,2013-05-28 22:46:00,
2013-05-28 18:51:00,73.8,69.4,29.80,SW,225,4.0,6.5,86,0.01,,,0.32,WUHU216HW,2013-05-28 22:51:00,
2013-05-28 18:56:00,74.0,69.6,29.80,SW,225,4.3,7.6,86,0.01,,,0.32,WUHU216HW,2013-05-28 22:56:00,
2013-05-28 19:01:00,74.5,69.8,29.81,SW,225,3.4,7.6,85,0.01,,,0.32,WUHU216HW,2013-05-28 23:01:00,
2013-05-28 19:06:00,74.5,69.8,29.81,South,180,5.1,5.8,85,0.01,,,0.32,WUHU216HW,2013-05-28 23:06:00,
2013-05-28 19:11:00,74.5,69.8,29.81,SSE,158,3.6,5.8,85,0.01,,,0.32,WUHU216HW,2013-05-28 23:11:00,
2013-05-28 19:16:00,74.3,69.6,29.80,SW,225,4.9,7.2,85,0.01,,,0.32,WUHU216HW,2013-05-28 23:16:00,
2013-05-28 19:21:00,74.2,69.4,29.80,SSE,158,4.7,7.2,85,0.01,,,0.32,WUHU216HW,2013-05-28 23:21:00,
2013-05-28 19:26:00,74.3,69.6,29.80,SSW,203,5.4,7.2,85,0.00,,,0.32,WUHU216HW,2013-05-28 23:26:00,
2013-05-28 19:31:00,74.5,69.8,29.80,South,180,3.4,7.6,85,0.00,,,0.32,WUHU216HW,2013-05-28 23:31:00,
2013-05-28 19:36:00,74.5,69.4,29.80,SSW,203,6.0,8.1,84,0.00,,,0.32,WUHU216HW,2013-05-28 23:36:00,
2013-05-28 19:41:00,74.7,69.6,29.80,South,180,6.9,8.1,84,0.00,,,0.32,WUHU216HW,2013-05-28 23:41:00,
2013-05-28 19:46:00,74.9,69.8,29.80,SSW,203,4.3,6.9,84,0.00,,,0.32,WUHU216HW,2013-05-28 23:46:00,
2013-05-28 19:51:00,74.7,69.6,29.80,SSE,158,3.4,6.9,84,0.00,,,0.32,WUHU216HW,2013-05-28 23:51:00,
2013-05-28 19:56:00,74.9,69.8,29.80,SSW,203,4.3,6.9,84,0.00,,,0.32,WUHU216HW,2013-05-28 23:56:00,
2013-05-28 20:01:00,74.9,69.4,29.79,SSW,203,6.5,6.9,83,0.00,,,0.32,WUHU216HW,2013-05-29 00:01:00,
2013-05-28 20:06:00,74.9,69.4,29.79,SSW,203,3.8,6.5,83,0.00,,,0.32,WUHU216HW,2013-05-29 00:06:00,
2013-05-28 20:11:00,74.7,69.2,29.79,SSW,203,3.4,6.5,83,0.00,,,0.32,WUHU216HW,2013-05-29 00:11:00,
2013-05-28 20:16:00,74.5,69.0,29.78,South,180,2.9,5.4,83,0.00,,,0.32,WUHU216HW,2013-05-29 00:16:00,
2013-05-28 20:21:00,74.3,68.9,29.78,SSE,158,2.2,5.8,83,0.00,,,0.32,WUHU216HW,2013-05-29 00:21:00,
2013-05-28 20:26:00,74.3,68.9,29.79,SSW,203,3.4,6.0,83,0.00,,,0.32,WUHU216HW,2013-05-29 00:26:00,
2013-05-28 20:31:00,74.2,68.7,29.79,SSE,158,1.6,6.0,83,0.00,,,0.32,WUHU216HW,2013-05-29 00:31:00,
2013-05-28 20:36:00,74.2,68.7,29.79,SSE,158,4.3,5.8,83,0.00,,,0.32,WUHU216HW,2013-05-29 00:36:00,
2013-05-28 20:41:00,73.8,68.3,29.79,SSE,158,4.7,7.4,83,0.00,,,0.32,WUHU216HW,2013-05-29 00:41:00,
2013-05-28 20:46:00,73.8,68.3,29.78,South,180,6.3,7.4,83,0.00,,,0.32,WUHU216HW,2013-05-29 00:46:00,
2013-05-28 20:51:00,73.4,68.0,29.78,SSW,203,6.5,7.8,83,0.00,,,0.32,WUHU216HW,2013-05-29 00:51:00,
2013-05-28 20:56:00,73.3,67.8,29.78,SSW,203,4.3,7.8,83,0.00,,,0.32,WUHU216HW,2013-05-29 00:56:00,
2013-05-28 21:01:00,73.1,67.6,29.78,SW,225,6.7,6.7,83,0.00,,,0.32,WUHU216HW,2013-05-29 01:01:00,
2013-05-28 21:06:00,73.1,67.6,29.78,SSW,203,3.6,6.9,83,0.00,,,0.32,WUHU216HW,2013-05-29 01:06:00,
2013-05-28 21:11:00,72.9,67.4,29.78,SSW,203,1.8,7.8,83,0.00,,,0.32,WUHU216HW,2013-05-29 01:11:00,
2013-05-28 21:16:00,72.7,67.2,29.78,SSW,203,4.9,7.8,83,0.00,,,0.32,WUHU216HW,2013-05-29 01:16:00,
2013-05-28 21:21:00,72.7,67.2,29.78,SSW,203,5.1,7.6,83,0.00,,,0.32,WUHU216HW,2013-05-29 01:21:00,
2013-05-28 21:26:00,72.7,67.0,29.78,SSW,203,4.9,7.6,82,0.00,,,0.32,WUHU216HW,2013-05-29 01:26:00,
2013-05-28 21:31:00,72.5,66.8,29.78,SSE,158,2.9,8.5,82,0.00,,,0.32,WUHU216HW,2013-05-29 01:31:00,
2013-05-28 21:36:00,72.5,66.8,29.78,SSW,203,4.5,8.5,82,0.00,,,0.32,WUHU216HW,2013-05-29 01:36:00,
2013-05-28 21:41:00,72.5,66.8,29.78,South,180,4.3,7.4,82,0.00,,,0.32,WUHU216HW,2013-05-29 01:41:00,
2013-05-28 21:46:00,72.5,66.8,29.78,South,180,3.8,6.3,82,0.00,,,0.32,WUHU216HW,2013-05-29 01:46:00,
2013-05-28 21:51:00,72.5,66.8,29.78,South,180,5.6,6.3,82,0.00,,,0.32,WUHU216HW,2013-05-29 01:51:00,
2013-05-28 21:56:00,72.5,66.8,29.78,SSW,203,2.5,5.6,82,0.00,,,0.32,WUHU216HW,2013-05-29 01:56:00,
2013-05-28 22:01:00,72.4,66.6,29.79,SSE,158,2.5,6.3,82,0.00,,,0.32,WUHU216HW,2013-05-29 02:01:00,
2013-05-28 22:06:00,72.4,66.6,29.79,SSW,203,4.7,6.3,82,0.00,,,0.32,WUHU216HW,2013-05-29 02:06:00,
2013-05-28 22:11:00,72.4,66.6,29.79,SSW,203,5.4,6.3,82,0.00,,,0.32,WUHU216HW,2013-05-29 02:11:00,
2013-05-28 22:16:00,72.4,66.6,29.79,SSW,203,5.6,7.2,82,0.00,,,0.32,WUHU216HW,2013-05-29 02:16:00,
2013-05-28 22:21:00,72.4,66.6,29.79,SSW,203,4.7,7.2,82,0.00,,,0.32,WUHU216HW,2013-05-29 02:21:00,
2013-05-28 22:26:00,72.5,66.8,29.79,SW,225,2.9,6.9,82,0.00,,,0.32,WUHU216HW,2013-05-29 02:26:00,
2013-05-28 22:31:00,72.5,66.8,29.79,SSW,203,4.7,8.7,82,0.00,,,0.32,WUHU216HW,2013-05-29 02:31:00,
2013-05-28 22:36:00,72.5,66.8,29.79,SSW,203,6.0,8.7,82,0.00,,,0.32,WUHU216HW,2013-05-29 02:36:00,
2013-05-28 22:41:00,72.5,66.8,29.80,SSW,203,5.4,8.5,82,0.00,,,0.32,WUHU216HW,2013-05-29 02:41:00,
2013-05-28 22:46:00,72.5,66.8,29.79,SSW,203,2.9,6.9,82,0.00,,,0.32,WUHU216HW,2013-05-29 02:46:00,
2013-05-28 22:51:00,72.5,66.8,29.79,SSW,203,5.1,7.2,82,0.00,,,0.32,WUHU216HW,2013-05-29 02:51:00,
2013-05-28 22:56:00,72.5,66.8,29.79,SSW,203,4.7,7.2,82,0.00,,,0.32,WUHU216HW,2013-05-29 02:56:00,
2013-05-28 23:01:00,72.5,66.8,29.79,SSW,203,4.7,7.2,82,0.00,,,0.32,WUHU216HW,2013-05-29 03:01:00,
2013-05-28 23:06:00,72.5,66.8,29.79,SSW,203,4.3,6.5,82,0.00,,,0.32,WUHU216HW,2013-05-29 03:06:00,
2013-05-28 23:11:00,72.5,66.8,29.79,South,180,5.4,6.5,82,0.00,,,0.32,WUHU216HW,2013-05-29 03:11:00,
2013-05-28 23:16:00,72.5,66.8,29.78,South,180,5.4,7.8,82,0.00,,,0.32,WUHU216HW,2013-05-29 03:16:00,
2013-05-28 23:21:00,72.7,67.2,29.78,South,180,4.9,7.8,83,0.00,,,0.32,WUHU216HW,2013-05-29 03:21:00,
2013-05-28 23:26:00,72.7,67.2,29.78,SSW,203,5.1,7.8,83,0.00,,,0.32,WUHU216HW,2013-05-29 03:26:00,
2013-05-28 23:31:00,72.7,67.2,29.78,SSW,203,5.8,8.1,83,0.00,,,0.32,WUHU216HW,2013-05-29 03:31:00,
2013-05-28 23:36:00,72.9,67.4,29.79,SSW,203,7.4,9.6,83,0.00,,,0.32,WUHU216HW,2013-05-29 03:36:00,
2013-05-28 23:41:00,72.9,67.2,29.79,SW,225,11.4,11.4,82,0.00,,,0.32,WUHU216HW,2013-05-29 03:41:00,
2013-05-28 23:46:00,73.1,67.3,29.79,SSW,203,6.5,11.6,82,0.00,,,0.32,WUHU216HW,2013-05-29 03:46:00,
2013-05-28 23:51:00,73.3,67.2,29.79,South,180,13.2,13.2,81,0.00,,,0.32,WUHU216HW,2013-05-29 03:51:00,
2013-05-28 23:56:00,73.3,67.2,29.79,SSW,203,5.1,13.2,81,0.00,,,0.32,WUHU216HW,2013-05-29 03:56:00,